Regional Weather Roundup
Issued by NWS Sterling, VA

Home | Current Version | Previous Version | Text Only | Print | Product List | Glossary Off
Versions: 1 2 3 4 5 6 7 8 9 10 11 12 13 14 15 16 17 18 19 20 21 22 23 24 25 26 27 28 29 30 31 32 33 34 35 36 37 38 39 40 41 42 43 44 45 46 47 48 49 50

000
ASUS41 KLWX 240710
RWRLWX

REGIONAL WEATHER ROUNDUP
NATIONAL WEATHER SERVICE BALTIMORE MD/WASHINGTON DC
300 AM EDT SUN JUL 24 2016

Note: "FAIR" indicates few or no clouds below 12,000 feet
with no significant weather and/or obstructions to visibility.
 TC=TEMPERATURE CELSIUS

 * =Non NWS site. Station does not report precipitation (e.g. rain,
    snow, etc.), thunder, or fog.

DCZ001-MDZ009-015-VAZ040>042-051-053>054-240800-
WASHINGTON METRO

CITY           SKY/WX    TMP DP  RH WIND       PRES   REMARKS
WASHINGTON NAT FAIR      83  74  74 N5        29.94S
DULLES         FAIR      77  71  82 NW7       29.96S
ANDREWS AFB    CLEAR     80  72  76 NW6       29.94S
FT BELVOIR     FAIR      75  72  91 CALM      29.94S
QUANTICO       FAIR      81  75  82 W6        29.94F
COLLEGE PARK*  FAIR      73  72  94 CALM      29.94S
LEESBURG*      FAIR      77  73  88 NW3       29.97S
MANASSAS*      FAIR      75  73  94 CALM      29.96R
GAITHERSBURG*  PTCLDY    73  68  83 CALM      30.00S

$$

MDZ006>007-011-014-240800-
BALTIMORE METRO

CITY           SKY/WX    TMP DP  RH WIND       PRES   REMARKS
BWI AIRPORT    MOCLDY    75  69  81 NW6       29.93S
MD SCIENCE CTR   N/A     84  65  52 MISG      29.93S
MARTIN STATE   PTCLDY    77  72  83 CALM      29.94S
ANNAPOLIS      PTCLDY    79  76  90 NW5       29.92S
FORT MEADE*    PTCLDY    70  68  94 CALM      29.96S

$$

MDZ012-015-019>023-240800-
MARYLAND EASTERN SHORE

CITY           SKY/WX    TMP DP  RH WIND       PRES   REMARKS
OCEAN CITY     PTCLDY    78  70  76 CALM      29.92S
SALISBURY      CLEAR     81  78  91 W6        29.92S
BAY BRIDGE AP* PTCLDY    79  75  89 CALM      29.93R
CAMBRIDGE*     CLEAR     77  73  88 CALM      29.92S
EASTON*        CLEAR     77  77 100 CALM      29.96S

$$

MDZ017>025-240800-
SOUTHERN MARYLAND

CITY           SKY/WX    TMP DP  RH WIND       PRES   REMARKS
PATUXENT RIVER PTCLDY    82  75  79 W6        29.93R
ST INIGOES     CLEAR     84  77  79 SW7       29.93R HX  94
LEONARDTOWN*   CLEAR     79  72  78 SW5       29.95S

$$

MDZ003>005-240800-
NORTH CENTRAL MARYLAND

CITY           SKY/WX    TMP DP  RH WIND       PRES   REMARKS
FREDERICK*     PTCLDY    70  70 100 CALM      29.99R FOG
HAGERSTOWN APT PTCLDY    76  68  76 S3        29.98S

$$

MDZ501>502-240800-
WESTERN MARYLAND

CITY           SKY/WX    TMP DP  RH WIND       PRES   REMARKS
OAKLAND*       CLEAR     68  68 100 S3        30.13S
CUMBERLAND*    PTCLDY    73  72  94 CALM      30.05R

$$

VAZ025>031-240800-
SHENANDOAH VALLEY

CITY           SKY/WX    TMP DP  RH WIND       PRES   REMARKS
WINCHESTER*    FAIR      79  70  73 CALM      29.99S
FRONT ROYAL*   FAIR      73  70  88 S7        29.99R
LURAY*         FAIR      72  72 100 CALM      30.01S HAZE
NEW MARKET*    FAIR     N/A N/A N/A CALM      30.00S
STAUNTON*      FAIR      71  69  96 CALM      30.04F
WAYNESBORO*    FAIR      73  68  85 SW6       30.04F

$$

WVZ021-048>050-054>055-240800-
EASTERN WEST VIRGINIA PANHANDLE

CITY           SKY/WX    TMP DP  RH WIND       PRES   REMARKS
MARTINSBURG    FAIR      72  68  87 SW3       29.98S
PETERSBURG*    FAIR      71  69  95 CALM      30.02S

$$

VAZ036>039-050-240800-
CENTRAL FOOTHILLS

CITY           SKY/WX    TMP DP  RH WIND       PRES   REMARKS
CHARLOTTESVILL FAIR      77  72  84 CALM      29.98S
CULPEPER*      FAIR      74  73  96 CALM      29.97S
ORANGE*          N/A     75  75 100 CALM      29.99S
GORDONSVILLE*  FAIR      74  73  99 CALM      29.97S
WARRENTON*     FAIR      75  69  82 CALM      29.96R

$$

VAZ055>057-240800-
NORTH AND CENTRAL PIEDMONT

CITY           SKY/WX    TMP DP  RH WIND       PRES   REMARKS
FREDERICKSBRG* FAIR      77  77 100 CALM      29.94S
STAFFORD*      FAIR      74  72  92 CALM      29.99S

$$

NCZ024-NYZ072-PAZ021-071-VAZ022-071-240800-
OTHER REGIONAL OBSERVATIONS

CITY           SKY/WX    TMP DP  RH WIND       PRES   REMARKS
NEW YORK CITY  PTCLDY    78  61  55 NE3       29.96R
PHILADELPHIA   PTCLDY    77  68  73 N3        29.94R
PITTSBURGH     PTCLDY    71  66  84 CALM      30.01F
ROANOKE        FAIR      76  69  79 NE3       30.04F
RICHMOND       FAIR      81  74  79 SW6       29.96R
RALEIGH        PTCLDY    76  73  91 SW7       30.01S

$$

ANZ530>537-240800-
MARINE OBSERVATIONS

STATION/POSITION TIME  TEMP    WIND        PRES
                       AIR SEA DIR/SP/G
                 (UTC) (F)     (DEG/KT/KT) (MB)
THOMAS PT LIGHT  0700   82 82  270/  5/  5 1014.9R
BALT KEY BRIDGE  0648   83     340/  7/  8 1013.3S
COVE POINT       0648   84     300/  6/ 10 1013.8R
LEWISETTA        0648   83 87  260/  9/ 11 1013.4R
SOLOMONS ISLAND  0642   83 85  270/  5/  7   N/A
PINEY POINT      0648          310/  6/  7   N/A

$$




USA.gov is the U.S. government's official web portal to all federal, state and local government web resources and services.